Погода в Николаевке

Россия / Республика Мордовия     54°19′55″N   46°30′54″E
темп.,
°C
ветер,
м/с
пор.,
м/с
влажн.,
%
обл.,
%
осадки,
мм/ч
давл.,
гПа
погр.,
м
24 января, вс
вс2400:00+1юз4129899 0.0 1019417
03:00+1юз3998100 0.0 1020289
06:00+1ююз4999100 0.1 1020284
09:00+1ююз410100100 0.1 1021312
12:00+1ююз410100100 0.1 1021322
15:00+1ююз41099100 0.1 1022345
18:00+1ююз41197100 0.0 1023389
21:00+1ююз51194100 0.0 1024419
25 января, пн
пн2500:00+1ююз5129298 0.1 1025428
03:00−1ююз5129398 0.1 1025422
06:000ююз51191100 0.0 1026483
09:00−1ю51091100 0.0 1026551
12:00−2ю5991100 0.0 1026598
15:00−2ю4890100 0.1 1025671
18:00−3ююв41091100 0.0 1025420
21:00−4ю41092100 0.0 1025649
26 января, вт
вт2600:00−3ю31092100 0.0 1024609
03:00−1ю3991100 0.1 1024602
06:00−1ю3992100 0.0 1023539
09:00−2ю5119097 0.0 1023600
12:00−2ю5118792 0.0 1023615
15:00−1ююв5128796 0.0 1022616
18:00−2ююз51292100 0.0 1022787
21:00−1ю51289100 0.1 1022489
27 января, ср
ср2700:00−1ю31092100 0.0 1022521
03:00−1ююв41091100 0.0 1021508
06:00−2ююв51291100 0.0 1021482
09:00−1ю51390100 0.0 1020561
12:000ю61392100 0.0 1020689
15:000ю5129098 0.0 1019583
18:00−3ююв4108990 0.0 1020324
21:00−4ю4138595 0.0 1019429
28 января, чт
чт2800:00−3ю51483100 0.0 1018467
03:00−3ююв41383100 0.0 1018413
06:00−4ююв41385100 0.0 1017440
09:00−4ююв51385100 0.0 1016462
12:00−3ююв51186100 0.0 1015508
15:00−3ююв41088100 0.0 1014503
18:00−6ююв4109099 0.0 1015320
21:00−7ююв3992100 0.0 1014296